owner,sensor,date,latitude,longitude,air_temperature,qcFlag 
COMPS,ioos:station:USF.COMPS:SHP:1,2017-01-01T14:00:00Z,30.0600,-84.2910,17.18,1111122 
COMPS,ioos:station:USF.COMPS:SHP:1,2017-01-01T14:06:00Z,30.0600,-84.2910,17.3,1111122 
COMPS,ioos:station:USF.COMPS:SHP:1,2017-01-01T14:12:00Z,30.0600,-84.2910,17.36,1111122 
COMPS,ioos:station:USF.COMPS:SHP:1,2017-01-01T14:18:00Z,30.0600,-84.2910,17.2,1111122 
COMPS,ioos:station:USF.COMPS:SHP:1,2017-01-01T14:24:00Z,30.0600,-84.2910,17.14,1111122 
COMPS,ioos:station:USF.COMPS:SHP:1,2017-01-01T14:30:00Z,30.0600,-84.2910,17.41,1111122 
COMPS,ioos:station:USF.COMPS:SHP:1,2017-01-01T14:36:00Z,30.0600,-84.2910,17.57,1111122 
COMPS,ioos:station:USF.COMPS:SHP:1,2017-01-01T14:42:00Z,30.0600,-84.2910,17.55,1111122 
COMPS,ioos:station:USF.COMPS:SHP:1,2017-01-01T14:48:00Z,30.0600,-84.2910,17.32,1111122 
COMPS,ioos:station:USF.COMPS:SHP:1,2017-01-01T14:54:00Z,30.0600,-84.2910,17.47,1111122 
COMPS,ioos:station:USF.COMPS:SHP:1,2017-01-01T15:00:00Z,30.0600,-84.2910,17.42,1111122 
COMPS,ioos:station:USF.COMPS:SHP:1,2017-01-01T15:06:00Z,30.0600,-84.2910,17.62,1111122 
COMPS,ioos:station:USF.COMPS:SHP:1,2017-01-01T15:12:00Z,30.0600,-84.2910,17.95,1111122 
COMPS,ioos:station:USF.COMPS:SHP:1,2017-01-01T15:18:00Z,30.0600,-84.2910,18.26,1111122 
COMPS,ioos:station:USF.COMPS:SHP:1,2017-01-01T15:24:00Z,30.0600,-84.2910,18.38,1111122 
COMPS,ioos:station:USF.COMPS:SHP:1,2017-01-01T15:30:00Z,30.0600,-84.2910,18.28,1111122 
COMPS,ioos:station:USF.COMPS:SHP:1,2017-01-01T15:36:00Z,30.0600,-84.2910,17.93,1111122 
COMPS,ioos:station:USF.COMPS:SHP:1,2017-01-01T15:42:00Z,30.0600,-84.2910,17.85,1111122 
COMPS,ioos:station:USF.COMPS:SHP:1,2017-01-01T15:48:00Z,30.0600,-84.2910,17.75,1111122 
COMPS,ioos:station:USF.COMPS:SHP:1,2017-01-01T15:54:00Z,30.0600,-84.2910,17.86,1111122 
COMPS,ioos:station:USF.COMPS:SHP:1,2017-01-01T16:00:00Z,30.0600,-84.2910,17.88,1111122 
COMPS,ioos:station:USF.COMPS:SHP:1,2017-01-01T16:06:00Z,30.0600,-84.2910,18.19,1111122 
COMPS,ioos:station:USF.COMPS:SHP:1,2017-01-01T16:12:00Z,30.0600,-84.2910,18.58,1111122 
COMPS,ioos:station:USF.COMPS:SHP:1,2017-01-01T16:18:00Z,30.0600,-84.2910,18.81,1111122 
COMPS,ioos:station:USF.COMPS:SHP:1,2017-01-01T16:24:00Z,30.0600,-84.2910,18.96,1111122 
COMPS,ioos:station:USF.COMPS:SHP:1,2017-01-01T16:30:00Z,30.0600,-84.2910,19.46,1111122 
COMPS,ioos:station:USF.COMPS:SHP:1,2017-01-01T16:36:00Z,30.0600,-84.2910,19.55,1111122 
COMPS,ioos:station:USF.COMPS:SHP:1,2017-01-01T16:42:00Z,30.0600,-84.2910,19.62,1111122 
COMPS,ioos:station:USF.COMPS:SHP:1,2017-01-01T16:48:00Z,30.0600,-84.2910,19.42,1111122 
COMPS,ioos:station:USF.COMPS:SHP:1,2017-01-01T16:54:00Z,30.0600,-84.2910,19.33,1111122 
COMPS,ioos:station:USF.COMPS:SHP:1,2017-01-01T17:00:00Z,30.0600,-84.2910,18.96,1111122 
COMPS,ioos:station:USF.COMPS:SHP:1,2017-01-01T17:06:00Z,30.0600,-84.2910,18.65,1111122 
COMPS,ioos:station:USF.COMPS:SHP:1,2017-01-01T17:12:00Z,30.0600,-84.2910,18.51,1111122 
COMPS,ioos:station:USF.COMPS:SHP:1,2017-01-01T17:18:00Z,30.0600,-84.2910,18.44,1111122 
COMPS,ioos:station:USF.COMPS:SHP:1,2017-01-01T17:24:00Z,30.0600,-84.2910,18.54,1111122 
COMPS,ioos:station:USF.COMPS:SHP:1,2017-01-01T17:30:00Z,30.0600,-84.2910,18.52,1111122 
COMPS,ioos:station:USF.COMPS:SHP:1,2017-01-01T17:36:00Z,30.0600,-84.2910,18.51,1111122 
COMPS,ioos:station:USF.COMPS:SHP:1,2017-01-01T17:42:00Z,30.0600,-84.2910,18.57,1111122 
COMPS,ioos:station:USF.COMPS:SHP:1,2017-01-01T17:48:00Z,30.0600,-84.2910,18.76,1111122 
COMPS,ioos:station:USF.COMPS:SHP:1,2017-01-01T17:54:00Z,30.0600,-84.2910,18.67,1111122 
COMPS,ioos:station:USF.COMPS:SHP:1,2017-01-01T18:00:00Z,30.0600,-84.2910,18.57,1111122 
COMPS,ioos:station:USF.COMPS:SHP:1,2017-01-01T18:06:00Z,30.0600,-84.2910,18.46,1111122 
COMPS,ioos:station:USF.COMPS:SHP:1,2017-01-01T18:12:00Z,30.0600,-84.2910,18.53,1111122 
COMPS,ioos:station:USF.COMPS:SHP:1,2017-01-01T18:18:00Z,30.0600,-84.2910,18.41,1111122 
COMPS,ioos:station:USF.COMPS:SHP:1,2017-01-01T18:24:00Z,30.0600,-84.2910,18.82,1111122 
COMPS,ioos:station:USF.COMPS:SHP:1,2017-01-01T18:30:00Z,30.0600,-84.2910,18.84,1111122 
COMPS,ioos:station:USF.COMPS:SHP:1,2017-01-01T18:36:00Z,30.0600,-84.2910,18.58,1111122 
COMPS,ioos:station:USF.COMPS:SHP:1,2017-01-01T18:42:00Z,30.0600,-84.2910,18.63,1111122 
COMPS,ioos:station:USF.COMPS:SHP:1,2017-01-01T18:48:00Z,30.0600,-84.2910,18.63,1111122 
COMPS,ioos:station:USF.COMPS:SHP:1,2017-01-01T18:54:00Z,30.0600,-84.2910,18.51,1111122 
COMPS,ioos:station:USF.COMPS:SHP:1,2017-01-01T19:00:00Z,30.0600,-84.2910,18.41,1111122 
COMPS,ioos:station:USF.COMPS:SHP:1,2017-01-01T19:06:00Z,30.0600,-84.2910,18.4,1111122 
COMPS,ioos:station:USF.COMPS:SHP:1,2017-01-01T19:12:00Z,30.0600,-84.2910,18.24,1111122 
COMPS,ioos:station:USF.COMPS:SHP:1,2017-01-01T19:18:00Z,30.0600,-84.2910,18.32,1111122 
COMPS,ioos:station:USF.COMPS:SHP:1,2017-01-01T19:24:00Z,30.0600,-84.2910,18.4,1111122 
COMPS,ioos:station:USF.COMPS:SHP:1,2017-01-01T19:30:00Z,30.0600,-84.2910,18.24,1111122 
COMPS,ioos:station:USF.COMPS:SHP:1,2017-01-01T19:36:00Z,30.0600,-84.2910,18.2,1111122 
COMPS,ioos:station:USF.COMPS:SHP:1,2017-01-01T19:42:00Z,30.0600,-84.2910,18.23,1111122 
COMPS,ioos:station:USF.COMPS:SHP:1,2017-01-01T19:48:00Z,30.0600,-84.2910,18.18,1111122 
COMPS,ioos:station:USF.COMPS:SHP:1,2017-01-01T19:54:00Z,30.0600,-84.2910,18.24,1111122 
COMPS,ioos:station:USF.COMPS:SHP:1,2017-01-01T20:00:00Z,30.0600,-84.2910,18.17,1111122 
COMPS,ioos:station:USF.COMPS:SHP:1,2017-01-01T20:06:00Z,30.0600,-84.2910,18.01,1111122 
COMPS,ioos:station:USF.COMPS:SHP:1,2017-01-01T20:12:00Z,30.0600,-84.2910,17.94,1111122 
COMPS,ioos:station:USF.COMPS:SHP:1,2017-01-01T20:18:00Z,30.0600,-84.2910,18.04,1111122 
COMPS,ioos:station:USF.COMPS:SHP:1,2017-01-01T20:24:00Z,30.0600,-84.2910,17.87,1111122 
COMPS,ioos:station:USF.COMPS:SHP:1,2017-01-01T20:30:00Z,30.0600,-84.2910,17.84,1111122 
COMPS,ioos:station:USF.COMPS:SHP:1,2017-01-01T20:36:00Z,30.0600,-84.2910,17.75,1111122 
COMPS,ioos:station:USF.COMPS:SHP:1,2017-01-01T20:42:00Z,30.0600,-84.2910,17.67,1111122 
COMPS,ioos:station:USF.COMPS:SHP:1,2017-01-01T20:48:00Z,30.0600,-84.2910,17.7,1111122 
COMPS,ioos:station:USF.COMPS:SHP:1,2017-01-01T20:54:00Z,30.0600,-84.2910,17.7,1111122 
COMPS,ioos:station:USF.COMPS:SHP:1,2017-01-01T21:00:00Z,30.0600,-84.2910,17.59,1111122 
COMPS,ioos:station:USF.COMPS:SHP:1,2017-01-01T21:06:00Z,30.0600,-84.2910,17.59,1111122 
COMPS,ioos:station:USF.COMPS:SHP:1,2017-01-01T21:12:00Z,30.0600,-84.2910,17.6,1111122 
COMPS,ioos:station:USF.COMPS:SHP:1,2017-01-01T21:18:00Z,30.0600,-84.2910,17.69,1111122 
COMPS,ioos:station:USF.COMPS:SHP:1,2017-01-01T21:24:00Z,30.0600,-84.2910,17.69,1111122 
COMPS,ioos:station:USF.COMPS:SHP:1,2017-01-01T21:30:00Z,30.0600,-84.2910,17.74,1111122 
COMPS,ioos:station:USF.COMPS:SHP:1,2017-01-01T21:36:00Z,30.0600,-84.2910,17.75,1111122 
COMPS,ioos:station:USF.COMPS:SHP:1,2017-01-01T21:42:00Z,30.0600,-84.2910,17.77,1111122 
COMPS,ioos:station:USF.COMPS:SHP:1,2017-01-01T21:48:00Z,30.0600,-84.2910,17.74,1111122 
COMPS,ioos:station:USF.COMPS:SHP:1,2017-01-01T21:54:00Z,30.0600,-84.2910,17.73,1111122 
COMPS,ioos:station:USF.COMPS:SHP:1,2017-01-02T14:00:00Z,30.0600,-84.2910,17.53,1111122 
COMPS,ioos:station:USF.COMPS:SHP:1,2017-01-02T14:06:00Z,30.0600,-84.2910,17.52,1111122 
COMPS,ioos:station:USF.COMPS:SHP:1,2017-01-02T14:12:00Z,30.0600,-84.2910,17.53,1111122 
COMPS,ioos:station:USF.COMPS:SHP:1,2017-01-02T14:18:00Z,30.0600,-84.2910,17.5,1111122 
COMPS,ioos:station:USF.COMPS:SHP:1,2017-01-02T14:24:00Z,30.0600,-84.2910,17.47,1111122 
COMPS,ioos:station:USF.COMPS:SHP:1,2017-01-02T14:30:00Z,30.0600,-84.2910,17.57,1111122 
COMPS,ioos:station:USF.COMPS:SHP:1,2017-01-02T14:36:00Z,30.0600,-84.2910,17.65,1111122 
COMPS,ioos:station:USF.COMPS:SHP:1,2017-01-02T14:42:00Z,30.0600,-84.2910,17.62,1111122 
COMPS,ioos:station:USF.COMPS:SHP:1,2017-01-02T14:48:00Z,30.0600,-84.2910,17.74,1111122 
COMPS,ioos:station:USF.COMPS:SHP:1,2017-01-02T14:54:00Z,30.0600,-84.2910,17.77,1111122 
COMPS,ioos:station:USF.COMPS:SHP:1,2017-01-02T15:00:00Z,30.0600,-84.2910,17.87,1111122 
COMPS,ioos:station:USF.COMPS:SHP:1,2017-01-02T15:06:00Z,30.0600,-84.2910,18.02,1111122 
COMPS,ioos:station:USF.COMPS:SHP:1,2017-01-02T15:12:00Z,30.0600,-84.2910,18.49,1111122 
COMPS,ioos:station:USF.COMPS:SHP:1,2017-01-02T15:18:00Z,30.0600,-84.2910,18.81,1111122 
COMPS,ioos:station:USF.COMPS:SHP:1,2017-01-02T15:24:00Z,30.0600,-84.2910,19.12,1111122 
COMPS,ioos:station:USF.COMPS:SHP:1,2017-01-02T15:30:00Z,30.0600,-84.2910,19.18,1111122 
COMPS,ioos:station:USF.COMPS:SHP:1,2017-01-02T15:36:00Z,30.0600,-84.2910,19.28,1111122 
COMPS,ioos:station:USF.COMPS:SHP:1,2017-01-02T15:42:00Z,30.0600,-84.2910,19.24,1111122 
COMPS,ioos:station:USF.COMPS:SHP:1,2017-01-02T15:48:00Z,30.0600,-84.2910,19.39,1111122 
COMPS,ioos:station:USF.COMPS:SHP:1,2017-01-02T15:54:00Z,30.0600,-84.2910,19.43,1111122 
COMPS,ioos:station:USF.COMPS:SHP:1,2017-01-02T16:00:00Z,30.0600,-84.2910,19.29,1111122 
COMPS,ioos:station:USF.COMPS:SHP:1,2017-01-02T16:06:00Z,30.0600,-84.2910,19.33,1111122 
COMPS,ioos:station:USF.COMPS:SHP:1,2017-01-02T16:12:00Z,30.0600,-84.2910,19.7,1111122 
COMPS,ioos:station:USF.COMPS:SHP:1,2017-01-02T16:18:00Z,30.0600,-84.2910,19.69,1111122 
COMPS,ioos:station:USF.COMPS:SHP:1,2017-01-02T16:24:00Z,30.0600,-84.2910,19.68,1111122 
COMPS,ioos:station:USF.COMPS:SHP:1,2017-01-02T16:30:00Z,30.0600,-84.2910,19.76,1111122 
COMPS,ioos:station:USF.COMPS:SHP:1,2017-01-02T16:36:00Z,30.0600,-84.2910,19.7,1111122 
COMPS,ioos:station:USF.COMPS:SHP:1,2017-01-02T16:42:00Z,30.0600,-84.2910,19.72,1111122 
COMPS,ioos:station:USF.COMPS:SHP:1,2017-01-02T16:48:00Z,30.0600,-84.2910,19.95,1111122 
COMPS,ioos:station:USF.COMPS:SHP:1,2017-01-02T16:54:00Z,30.0600,-84.2910,19.8,1111122 
COMPS,ioos:station:USF.COMPS:SHP:1,2017-01-02T17:00:00Z,30.0600,-84.2910,19.3,1111122 
COMPS,ioos:station:USF.COMPS:SHP:1,2017-01-02T17:06:00Z,30.0600,-84.2910,19.21,1111122 
COMPS,ioos:station:USF.COMPS:SHP:1,2017-01-02T17:12:00Z,30.0600,-84.2910,19.09,1111122 
COMPS,ioos:station:USF.COMPS:SHP:1,2017-01-02T17:18:00Z,30.0600,-84.2910,18.75,1111122 
COMPS,ioos:station:USF.COMPS:SHP:1,2017-01-02T17:24:00Z,30.0600,-84.2910,18.69,1111122 
COMPS,ioos:station:USF.COMPS:SHP:1,2017-01-02T17:30:00Z,30.0600,-84.2910,18.69,1111122 
COMPS,ioos:station:USF.COMPS:SHP:1,2017-01-02T17:36:00Z,30.0600,-84.2910,18.7,1111122 
COMPS,ioos:station:USF.COMPS:SHP:1,2017-01-02T17:42:00Z,30.0600,-84.2910,18.59,1111122 
COMPS,ioos:station:USF.COMPS:SHP:1,2017-01-02T17:48:00Z,30.0600,-84.2910,18.69,1111122 
COMPS,ioos:station:USF.COMPS:SHP:1,2017-01-02T17:54:00Z,30.0600,-84.2910,18.94,1111122 
COMPS,ioos:station:USF.COMPS:SHP:1,2017-01-02T18:00:00Z,30.0600,-84.2910,18.82,1111122 
COMPS,ioos:station:USF.COMPS:SHP:1,2017-01-02T18:06:00Z,30.0600,-84.2910,18.55,1111122 
COMPS,ioos:station:USF.COMPS:SHP:1,2017-01-02T18:12:00Z,30.0600,-84.2910,18.28,1111122 
COMPS,ioos:station:USF.COMPS:SHP:1,2017-01-02T18:18:00Z,30.0600,-84.2910,18.09,1111122 
COMPS,ioos:station:USF.COMPS:SHP:1,2017-01-02T18:24:00Z,30.0600,-84.2910,17.99,1111122 
COMPS,ioos:station:USF.COMPS:SHP:1,2017-01-02T18:30:00Z,30.0600,-84.2910,17.91,1111122 
COMPS,ioos:station:USF.COMPS:SHP:1,2017-01-02T18:36:00Z,30.0600,-84.2910,17.79,1111122 
COMPS,ioos:station:USF.COMPS:SHP:1,2017-01-02T18:42:00Z,30.0600,-84.2910,17.81,1111122 
COMPS,ioos:station:USF.COMPS:SHP:1,2017-01-02T18:48:00Z,30.0600,-84.2910,17.85,1111122 
COMPS,ioos:station:USF.COMPS:SHP:1,2017-01-02T18:54:00Z,30.0600,-84.2910,17.92,1111122 
COMPS,ioos:station:USF.COMPS:SHP:1,2017-01-02T19:00:00Z,30.0600,-84.2910,17.98,1111122 
COMPS,ioos:station:USF.COMPS:SHP:1,2017-01-02T19:06:00Z,30.0600,-84.2910,17.93,1111122 
COMPS,ioos:station:USF.COMPS:SHP:1,2017-01-02T19:12:00Z,30.0600,-84.2910,17.99,1111122 
COMPS,ioos:station:USF.COMPS:SHP:1,2017-01-02T19:18:00Z,30.0600,-84.2910,17.88,1111122 
COMPS,ioos:station:USF.COMPS:SHP:1,2017-01-02T19:24:00Z,30.0600,-84.2910,17.93,1111122 
COMPS,ioos:station:USF.COMPS:SHP:1,2017-01-02T19:30:00Z,30.0600,-84.2910,17.88,1111122 
COMPS,ioos:station:USF.COMPS:SHP:1,2017-01-02T19:36:00Z,30.0600,-84.2910,18.0,1111122 
COMPS,ioos:station:USF.COMPS:SHP:1,2017-01-02T19:42:00Z,30.0600,-84.2910,18.05,1111122 
COMPS,ioos:station:USF.COMPS:SHP:1,2017-01-02T19:48:00Z,30.0600,-84.2910,17.89,1111122 
COMPS,ioos:station:USF.COMPS:SHP:1,2017-01-02T19:54:00Z,30.0600,-84.2910,17.92,1111122 
COMPS,ioos:station:USF.COMPS:SHP:1,2017-01-02T20:00:00Z,30.0600,-84.2910,18.11,1111122 
COMPS,ioos:station:USF.COMPS:SHP:1,2017-01-02T20:06:00Z,30.0600,-84.2910,18.13,1111122 
COMPS,ioos:station:USF.COMPS:SHP:1,2017-01-02T20:12:00Z,30.0600,-84.2910,18.14,1111122 
COMPS,ioos:station:USF.COMPS:SHP:1,2017-01-02T20:18:00Z,30.0600,-84.2910,18.15,1111122 
COMPS,ioos:station:USF.COMPS:SHP:1,2017-01-02T20:24:00Z,30.0600,-84.2910,18.15,1111122 
COMPS,ioos:station:USF.COMPS:SHP:1,2017-01-02T20:30:00Z,30.0600,-84.2910,18.04,1111122 
COMPS,ioos:station:USF.COMPS:SHP:1,2017-01-02T20:36:00Z,30.0600,-84.2910,17.94,1111122 
COMPS,ioos:station:USF.COMPS:SHP:1,2017-01-02T20:42:00Z,30.0600,-84.2910,17.93,1111122 
COMPS,ioos:station:USF.COMPS:SHP:1,2017-01-02T20:48:00Z,30.0600,-84.2910,17.94,1111122 
COMPS,ioos:station:USF.COMPS:SHP:1,2017-01-02T20:54:00Z,30.0600,-84.2910,17.86,1111122 
COMPS,ioos:station:USF.COMPS:SHP:1,2017-01-02T21:00:00Z,30.0600,-84.2910,17.8,1111122 
COMPS,ioos:station:USF.COMPS:SHP:1,2017-01-02T21:06:00Z,30.0600,-84.2910,17.84,1111122 
COMPS,ioos:station:USF.COMPS:SHP:1,2017-01-02T21:12:00Z,30.0600,-84.2910,17.88,1111122 
COMPS,ioos:station:USF.COMPS:SHP:1,2017-01-02T21:18:00Z,30.0600,-84.2910,17.89,1111122 
COMPS,ioos:station:USF.COMPS:SHP:1,2017-01-02T21:24:00Z,30.0600,-84.2910,17.89,1111122 
COMPS,ioos:station:USF.COMPS:SHP:1,2017-01-02T21:30:00Z,30.0600,-84.2910,17.98,1111122 
COMPS,ioos:station:USF.COMPS:SHP:1,2017-01-02T21:36:00Z,30.0600,-84.2910,17.99,1111122 
COMPS,ioos:station:USF.COMPS:SHP:1,2017-01-02T21:42:00Z,30.0600,-84.2910,18.07,1111122 
COMPS,ioos:station:USF.COMPS:SHP:1,2017-01-02T21:48:00Z,30.0600,-84.2910,18.07,1111122 
COMPS,ioos:station:USF.COMPS:SHP:1,2017-01-02T21:54:00Z,30.0600,-84.2910,18.03,1111122 
COMPS,ioos:station:USF.COMPS:SHP:1,2017-01-03T15:00:00Z,30.0600,-84.2910,20.68,1111122 
COMPS,ioos:station:USF.COMPS:SHP:1,2017-01-03T15:06:00Z,30.0600,-84.2910,20.88,1111122 
COMPS,ioos:station:USF.COMPS:SHP:1,2017-01-03T15:12:00Z,30.0600,-84.2910,21.07,1111122 
COMPS,ioos:station:USF.COMPS:SHP:1,2017-01-03T15:18:00Z,30.0600,-84.2910,21.22,1111122 
COMPS,ioos:station:USF.COMPS:SHP:1,2017-01-03T15:24:00Z,30.0600,-84.2910,20.95,1111122 
COMPS,ioos:station:USF.COMPS:SHP:1,2017-01-03T15:30:00Z,30.0600,-84.2910,20.91,1111122 
COMPS,ioos:station:USF.COMPS:SHP:1,2017-01-03T15:36:00Z,30.0600,-84.2910,20.91,1111122 
COMPS,ioos:station:USF.COMPS:SHP:1,2017-01-03T15:42:00Z,30.0600,-84.2910,20.58,1111122 
COMPS,ioos:station:USF.COMPS:SHP:1,2017-01-03T15:48:00Z,30.0600,-84.2910,20.51,1111122 
COMPS,ioos:station:USF.COMPS:SHP:1,2017-01-03T15:54:00Z,30.0600,-84.2910,20.58,1111122 
COMPS,ioos:station:USF.COMPS:SHP:1,2017-01-03T16:00:00Z,30.0600,-84.2910,20.62,1111122 
COMPS,ioos:station:USF.COMPS:SHP:1,2017-01-03T16:06:00Z,30.0600,-84.2910,20.68,1111122 
COMPS,ioos:station:USF.COMPS:SHP:1,2017-01-03T16:12:00Z,30.0600,-84.2910,20.73,1111122 
COMPS,ioos:station:USF.COMPS:SHP:1,2017-01-03T16:18:00Z,30.0600,-84.2910,20.98,1111122 
COMPS,ioos:station:USF.COMPS:SHP:1,2017-01-03T16:24:00Z,30.0600,-84.2910,21.4,1111122 
COMPS,ioos:station:USF.COMPS:SHP:1,2017-01-03T16:30:00Z,30.0600,-84.2910,21.44,1111122 
COMPS,ioos:station:USF.COMPS:SHP:1,2017-01-03T16:36:00Z,30.0600,-84.2910,21.11,1111122 
COMPS,ioos:station:USF.COMPS:SHP:1,2017-01-03T16:42:00Z,30.0600,-84.2910,21.04,1111122 
COMPS,ioos:station:USF.COMPS:SHP:1,2017-01-03T16:48:00Z,30.0600,-84.2910,20.79,1111122 
COMPS,ioos:station:USF.COMPS:SHP:1,2017-01-03T16:54:00Z,30.0600,-84.2910,20.58,1111122 
COMPS,ioos:station:USF.COMPS:SHP:1,2017-01-03T17:00:00Z,30.0600,-84.2910,20.46,1111122 
COMPS,ioos:station:USF.COMPS:SHP:1,2017-01-03T17:06:00Z,30.0600,-84.2910,20.54,1111122 
COMPS,ioos:station:USF.COMPS:SHP:1,2017-01-03T17:12:00Z,30.0600,-84.2910,20.39,1111122 
COMPS,ioos:station:USF.COMPS:SHP:1,2017-01-03T17:18:00Z,30.0600,-84.2910,20.58,1111122 
COMPS,ioos:station:USF.COMPS:SHP:1,2017-01-03T17:24:00Z,30.0600,-84.2910,20.78,1111122 
COMPS,ioos:station:USF.COMPS:SHP:1,2017-01-03T17:30:00Z,30.0600,-84.2910,20.93,1111122 
COMPS,ioos:station:USF.COMPS:SHP:1,2017-01-03T17:36:00Z,30.0600,-84.2910,20.76,1111122 
COMPS,ioos:station:USF.COMPS:SHP:1,2017-01-03T17:42:00Z,30.0600,-84.2910,20.9,1111122 
COMPS,ioos:station:USF.COMPS:SHP:1,2017-01-03T17:48:00Z,30.0600,-84.2910,21.37,1111122 
COMPS,ioos:station:USF.COMPS:SHP:1,2017-01-03T17:54:00Z,30.0600,-84.2910,21.37,1111122 
COMPS,ioos:station:USF.COMPS:SHP:1,2017-01-03T18:00:00Z,30.0600,-84.2910,21.14,1111122 
COMPS,ioos:station:USF.COMPS:SHP:1,2017-01-03T18:06:00Z,30.0600,-84.2910,21.03,1111122 
COMPS,ioos:station:USF.COMPS:SHP:1,2017-01-03T18:12:00Z,30.0600,-84.2910,20.91,1111122 
COMPS,ioos:station:USF.COMPS:SHP:1,2017-01-03T18:18:00Z,30.0600,-84.2910,21.42,1111122 
COMPS,ioos:station:USF.COMPS:SHP:1,2017-01-03T18:24:00Z,30.0600,-84.2910,21.68,1111122 
COMPS,ioos:station:USF.COMPS:SHP:1,2017-01-03T18:30:00Z,30.0600,-84.2910,21.81,1111122 
COMPS,ioos:station:USF.COMPS:SHP:1,2017-01-03T18:36:00Z,30.0600,-84.2910,21.78,1111122 
COMPS,ioos:station:USF.COMPS:SHP:1,2017-01-03T18:42:00Z,30.0600,-84.2910,22.32,1111122 
COMPS,ioos:station:USF.COMPS:SHP:1,2017-01-03T18:48:00Z,30.0600,-84.2910,22.59,1111122 
COMPS,ioos:station:USF.COMPS:SHP:1,2017-01-03T18:54:00Z,30.0600,-84.2910,22.67,1111122 
COMPS,ioos:station:USF.COMPS:SHP:1,2017-01-03T19:00:00Z,30.0600,-84.2910,22.36,1111122 
COMPS,ioos:station:USF.COMPS:SHP:1,2017-01-03T19:06:00Z,30.0600,-84.2910,22.6,1111122 
COMPS,ioos:station:USF.COMPS:SHP:1,2017-01-03T19:12:00Z,30.0600,-84.2910,22.71,1111122 
COMPS,ioos:station:USF.COMPS:SHP:1,2017-01-03T19:18:00Z,30.0600,-84.2910,22.25,1111122 
COMPS,ioos:station:USF.COMPS:SHP:1,2017-01-03T19:24:00Z,30.0600,-84.2910,22.02,1111122 
COMPS,ioos:station:USF.COMPS:SHP:1,2017-01-03T19:30:00Z,30.0600,-84.2910,21.25,1111122 
COMPS,ioos:station:USF.COMPS:SHP:1,2017-01-03T19:36:00Z,30.0600,-84.2910,21.28,1111122 
COMPS,ioos:station:USF.COMPS:SHP:1,2017-01-03T19:42:00Z,30.0600,-84.2910,21.37,1111122 
COMPS,ioos:station:USF.COMPS:SHP:1,2017-01-03T19:48:00Z,30.0600,-84.2910,20.9,1111122 
COMPS,ioos:station:USF.COMPS:SHP:1,2017-01-03T19:54:00Z,30.0600,-84.2910,20.73,1111122 
COMPS,ioos:station:USF.COMPS:SHP:1,2017-01-03T20:00:00Z,30.0600,-84.2910,20.72,1111122 
COMPS,ioos:station:USF.COMPS:SHP:1,2017-01-03T20:06:00Z,30.0600,-84.2910,20.76,1111122 
COMPS,ioos:station:USF.COMPS:SHP:1,2017-01-03T20:12:00Z,30.0600,-84.2910,20.17,1111122 
COMPS,ioos:station:USF.COMPS:SHP:1,2017-01-03T20:18:00Z,30.0600,-84.2910,20.21,1111122 
COMPS,ioos:station:USF.COMPS:SHP:1,2017-01-03T20:24:00Z,30.0600,-84.2910,20.43,1111122 
COMPS,ioos:station:USF.COMPS:SHP:1,2017-01-03T20:30:00Z,30.0600,-84.2910,20.51,1111122 
COMPS,ioos:station:USF.COMPS:SHP:1,2017-01-03T20:36:00Z,30.0600,-84.2910,20.55,1111122 
COMPS,ioos:station:USF.COMPS:SHP:1,2017-01-03T20:42:00Z,30.0600,-84.2910,20.67,1111122 
COMPS,ioos:station:USF.COMPS:SHP:1,2017-01-03T20:48:00Z,30.0600,-84.2910,20.6,1111122 
COMPS,ioos:station:USF.COMPS:SHP:1,2017-01-03T20:54:00Z,30.0600,-84.2910,20.69,1111122 
COMPS,ioos:station:USF.COMPS:SHP:1,2017-01-03T21:00:00Z,30.0600,-84.2910,20.66,1111122 
COMPS,ioos:station:USF.COMPS:SHP:1,2017-01-03T21:06:00Z,30.0600,-84.2910,20.85,1111122 
COMPS,ioos:station:USF.COMPS:SHP:1,2017-01-03T21:12:00Z,30.0600,-84.2910,20.8,1111122 
COMPS,ioos:station:USF.COMPS:SHP:1,2017-01-03T21:18:00Z,30.0600,-84.2910,20.67,1111122 
COMPS,ioos:station:USF.COMPS:SHP:1,2017-01-03T21:24:00Z,30.0600,-84.2910,20.47,1111122 
COMPS,ioos:station:USF.COMPS:SHP:1,2017-01-03T21:30:00Z,30.0600,-84.2910,20.35,1111122 
COMPS,ioos:station:USF.COMPS:SHP:1,2017-01-03T21:36:00Z,30.0600,-84.2910,20.39,1111122 
COMPS,ioos:station:USF.COMPS:SHP:1,2017-01-03T21:42:00Z,30.0600,-84.2910,20.75,1111122 
COMPS,ioos:station:USF.COMPS:SHP:1,2017-01-03T21:48:00Z,30.0600,-84.2910,20.7,1111122 
COMPS,ioos:station:USF.COMPS:SHP:1,2017-01-03T21:54:00Z,30.0600,-84.2910,20.42,1111122 
COMPS,ioos:station:USF.COMPS:SHP:1,2017-01-03T22:00:00Z,30.0600,-84.2910,20.34,1111122 
COMPS,ioos:station:USF.COMPS:SHP:1,2017-01-03T22:06:00Z,30.0600,-84.2910,20.47,1111122 
COMPS,ioos:station:USF.COMPS:SHP:1,2017-01-03T22:12:00Z,30.0600,-84.2910,20.55,1111122 
COMPS,ioos:station:USF.COMPS:SHP:1,2017-01-03T22:18:00Z,30.0600,-84.2910,20.45,1111122 
COMPS,ioos:station:USF.COMPS:SHP:1,2017-01-03T22:24:00Z,30.0600,-84.2910,20.3,1111122 
COMPS,ioos:station:USF.COMPS:SHP:1,2017-01-03T22:30:00Z,30.0600,-84.2910,20.31,1111122 
COMPS,ioos:station:USF.COMPS:SHP:1,2017-01-03T22:36:00Z,30.0600,-84.2910,20.36,1111122 
COMPS,ioos:station:USF.COMPS:SHP:1,2017-01-03T22:42:00Z,30.0600,-84.2910,20.34,1111122 
COMPS,ioos:station:USF.COMPS:SHP:1,2017-01-03T22:48:00Z,30.0600,-84.2910,20.09,1111122 
COMPS,ioos:station:USF.COMPS:SHP:1,2017-01-03T22:54:00Z,30.0600,-84.2910,19.91,1111122 
COMPS,ioos:station:USF.COMPS:SHP:1,2017-01-04T12:42:00Z,30.0600,-84.2910,13.56,1111122 
COMPS,ioos:station:USF.COMPS:SHP:1,2017-01-04T12:48:00Z,30.0600,-84.2910,13.66,1111122 
COMPS,ioos:station:USF.COMPS:SHP:1,2017-01-04T12:54:00Z,30.0600,-84.2910,13.71,1111122 
COMPS,ioos:station:USF.COMPS:SHP:1,2017-01-04T13:00:00Z,30.0600,-84.2910,13.85,1111122 
COMPS,ioos:station:USF.COMPS:SHP:1,2017-01-04T13:06:00Z,30.0600,-84.2910,13.98,1111122 
COMPS,ioos:station:USF.COMPS:SHP:1,2017-01-04T13:12:00Z,30.0600,-84.2910,14.1,1111122 
COMPS,ioos:station:USF.COMPS:SHP:1,2017-01-04T13:18:00Z,30.0600,-84.2910,14.12,1111122 
COMPS,ioos:station:USF.COMPS:SHP:1,2017-01-04T13:24:00Z,30.0600,-84.2910,14.18,1111122 
COMPS,ioos:station:USF.COMPS:SHP:1,2017-01-04T13:30:00Z,30.0600,-84.2910,14.26,1111122 
COMPS,ioos:station:USF.COMPS:SHP:1,2017-01-04T13:36:00Z,30.0600,-84.2910,14.46,1111122 
COMPS,ioos:station:USF.COMPS:SHP:1,2017-01-04T13:42:00Z,30.0600,-84.2910,14.52,1111122 
COMPS,ioos:station:USF.COMPS:SHP:1,2017-01-04T13:48:00Z,30.0600,-84.2910,14.57,1111122 
COMPS,ioos:station:USF.COMPS:SHP:1,2017-01-04T13:54:00Z,30.0600,-84.2910,14.84,1111122 
COMPS,ioos:station:USF.COMPS:SHP:1,2017-01-04T14:00:00Z,30.0600,-84.2910,15.05,1111122 
COMPS,ioos:station:USF.COMPS:SHP:1,2017-01-04T14:06:00Z,30.0600,-84.2910,15.2,1111122 
COMPS,ioos:station:USF.COMPS:SHP:1,2017-01-04T14:12:00Z,30.0600,-84.2910,15.25,1111122 
COMPS,ioos:station:USF.COMPS:SHP:1,2017-01-04T14:18:00Z,30.0600,-84.2910,15.33,1111122 
COMPS,ioos:station:USF.COMPS:SHP:1,2017-01-04T14:24:00Z,30.0600,-84.2910,15.51,1111122 
COMPS,ioos:station:USF.COMPS:SHP:1,2017-01-04T14:30:00Z,30.0600,-84.2910,15.74,1111122 
COMPS,ioos:station:USF.COMPS:SHP:1,2017-01-04T14:36:00Z,30.0600,-84.2910,15.82,1111122 
COMPS,ioos:station:USF.COMPS:SHP:1,2017-01-04T14:42:00Z,30.0600,-84.2910,15.95,1111122 
COMPS,ioos:station:USF.COMPS:SHP:1,2017-01-04T14:48:00Z,30.0600,-84.2910,16.18,1111122 
COMPS,ioos:station:USF.COMPS:SHP:1,2017-01-04T14:54:00Z,30.0600,-84.2910,16.27,1111122 
COMPS,ioos:station:USF.COMPS:SHP:1,2017-01-04T15:00:00Z,30.0600,-84.2910,16.41,1111122 
COMPS,ioos:station:USF.COMPS:SHP:1,2017-01-04T15:06:00Z,30.0600,-84.2910,16.62,1111122 
COMPS,ioos:station:USF.COMPS:SHP:1,2017-01-04T15:12:00Z,30.0600,-84.2910,16.98,1111122 
COMPS,ioos:station:USF.COMPS:SHP:1,2017-01-04T15:18:00Z,30.0600,-84.2910,17.27,1111122 
COMPS,ioos:station:USF.COMPS:SHP:1,2017-01-04T15:24:00Z,30.0600,-84.2910,17.4,1111122 
COMPS,ioos:station:USF.COMPS:SHP:1,2017-01-04T15:30:00Z,30.0600,-84.2910,17.47,1111122 
COMPS,ioos:station:USF.COMPS:SHP:1,2017-01-04T15:36:00Z,30.0600,-84.2910,17.85,1111122 
COMPS,ioos:station:USF.COMPS:SHP:1,2017-01-04T15:42:00Z,30.0600,-84.2910,18.07,1111122 
COMPS,ioos:station:USF.COMPS:SHP:1,2017-01-04T15:48:00Z,30.0600,-84.2910,18.15,1111122 